DEKART (46493 NORAD) Tracking and Keplerian Element Data

This shows tracking and keplerian element data for the satellite.

Feedback or suggestion? Click here.




ElementValue
Catalog46493
NameDEKART
Epoch Orbit484
Epoch Day304.89334915
Epoch Year2020
RAAN238.0879
Inclination97.6697
Eccentricity0.0019495
Argument of Perigee132.6083
Mean Anonmoly227.6766
Mean Motion15.03431523
Decay Rate1.166E-05
L11 46493U 20068H 20304.89334915 .00001166 00000-0 89907-4 0 9994
L22 46493 97.6697 238.0879 0019495 132.6083 227.6766 15.03431523 4849

Live tracking and technical data element details for DEKART (NORAD 46493). DEKART can be tracked NOW for your location showing map with azimuth and elevation plus other details from your city location.

Track the satellite on the map from your city or location and see movement details for azimuth, elevation, latitude, longitude, range, height, and movement on the map or in text.







IsCatalogInMostPopularTable: catalog: 46493, numindb: 4
Update: records affected: 1



GetName: 46493 DEKART

Hit Count: updated at: Sat, 31 Oct 2020 11:36:58 GMT